Location: Bennemühlen
(52.5740°N, 9.7135°E)
Time: 17:25:01
(UTC+00:00)

Tiros 1 despin weight - Pass Details

Date: 24 February 2026
Orbit: 556 x 593 km, 48.2° (Epoch: 11 March)

Event Time Altitude Azimuth Distance (km) Brightness Sun altitude
Rises 17:22:43 0° 274° (W) 2,738 ? -5.6°
Reaches altitude 10° 17:25:32 10° 255° (WSW) 1,838 ? -6.0°
Maximum altitude 17:28:21 18° 212° (SSW) 1,409 ? -6.4°
Drops below altitude 10° 17:31:10 10° 170° (S) 1,832 ? -6.9°
Sets 17:33:59 0° 151° (SSE) 2,726 ? -7.3°
